Location: Gull Harbor
(47.1000°N, 122.9000°W)
Time: 11:36:21
(UTC-07:00)

ACS3 Solar Sail - Visible Passes

Search period start: 30 May 2024 00:00
Search period end: 09 June 2024 00:00
Orbit: 992 x 1023 km, 97.4° (Epoch: 29 May)

Date Brightness Start Highest point End Pass type
(mag) Time Alt. Az. Time Alt. Az. Time Alt. Az.
30 May 7.1 00:57:31 10° WSW 01:00:02 12° W 01:02:33 10° WNW visible
30 May 5.6 21:59:44 11° SE 22:05:21 39° ENE 22:11:05 10° N visible
30 May 5.8 23:45:04 18° SSW 23:49:26 41° W 23:55:20 10° NNW visible
31 May 5.0 22:34:30 16° SSE 22:39:35 67° ENE 22:45:49 10° N visible
01 Jun 6.5 00:19:51 12° SW 00:24:13 23° W 00:29:05 10° NW visible
01 Jun 5.0 23:09:16 19° S 23:14:00 71° W 23:20:17 10° NNW visible
02 Jun 7.1 00:56:59 10° WSW 00:59:14 12° W 01:01:30 10° WNW visible
02 Jun 5.6 21:58:44 10° SE 22:04:30 40° ENE 22:10:16 10° N visible
02 Jun 5.8 23:44:03 16° SSW 23:48:36 40° W 23:54:28 10° NNW visible
03 Jun 5.0 22:33:29 15° SSE 22:38:44 69° ENE 22:44:59 10° N visible
04 Jun 6.6 00:18:50 11° SW 00:23:25 22° W 00:28:11 10° NW visible
04 Jun 5.0 23:08:16 17° S 23:13:10 69° W 23:19:26 10° NNW visible
05 Jun 7.1 00:56:29 10° W 00:58:26 11° W 01:00:24 10° WNW visible
05 Jun 5.6 21:57:52 10° SE 22:03:39 41° ENE 22:09:26 10° N visible
05 Jun 5.9 23:43:02 15° SSW 23:47:47 39° W 23:53:36 10° NNW visible
06 Jun 4.9 22:32:29 14° SSE 22:37:54 71° ENE 22:44:09 10° N visible
07 Jun 6.6 00:17:56 10° SW 00:22:36 22° W 00:27:16 10° NW visible
07 Jun 5.1 23:07:16 16° S 23:12:20 67° W 23:18:35 10° NNW visible
08 Jun 7.2 00:56:02 10° W 00:57:38 11° W 00:59:15 10° WNW visible
08 Jun 5.5 21:57:00 10° SE 22:02:48 42° ENE 22:08:36 10° N visible
08 Jun 5.9 23:42:03 14° SSW 23:46:58 37° W 23:52:44 10° NNW visible
